Terminal Aerodrome Forecast
Issued by NWS Louisville, KY

Home | Current Version | Previous Version | Text Only | Print | Product List | Glossary On
Versions: 1 2 3 4 5 6 7 8 9 10 11 12 13
000
FTUS43 KLMK 232300
TAFSDF
TAF
KSDF 232320Z 2400/2506 24004KT P6SM BKN200
     FM240900 17003KT P6SM BKN150
     FM241400 23004KT P6SM SCT090=

USA.gov is the U.S. government's official web portal to all federal, state and local government web resources and services.